Location: Ferris
(32.5340°N, 96.6656°W)
Time: 11:08:36
(UTC+00:00)

Cosmos 1898 Rocket - Pass Details

Date: 11 February 2026
Orbit: 749 x 779 km, 74.0° (Epoch: 7 March)

Event Time Altitude Azimuth Distance (km) Brightness Sun altitude
Rises 12:38:56 0° 187° (S) 3,219 6.8 -7.8°
Reaches altitude 10° 12:41:19 10° 184° (S) 2,301 6.1 -7.3°
Maximum altitude 12:46:28 63° 104° (ESE) 860 4.2 -6.3°
Drops below altitude 10° 12:51:42 10° 24° (NNE) 2,330 6.2 -5.2°
Sets 12:54:06 0° 21° (NNE) 3,263 6.9 -4.7°
